EW7175 Weather Reports


Display with metric or nautical units.
time (UTC)temp
F
wind
direction
speed
MPH
gust
MPH
rain 1hr
in
rain 24hr
in
rain mn
in
humidity
%
barometer
mb
20260903053052 84 210 1.0 6.0 0.00 0.02 0.00 86 1012.4
20260903051607 83 164 0.0 5.0 0.00 0.02 0.00 86 1012.6
20260903050053 83 172 0.0 5.0 0.00 0.02 0.00 86 1012.7
20260903044549 83 204 0.0 6.0 0.00 0.02 0.02 86 1012.7
20260903043144 83 140 1.0 4.0 0.00 0.02 0.02 87 1012.9
20260903041545 82 184 0.0 1.0 0.00 0.02 0.02 90 1012.9
20260903040046 81 165 0.0 8.0 0.00 0.02 0.02 92 1012.5
20260903034543 80 148 0.0 2.0 0.00 0.02 0.02 93 1012.3
20260903033043 80 119 0.0 0.0 0.00 0.02 0.02 92 1012.2
20260903031542 80 119 0.0 0.0 0.00 0.02 0.02 92 1012.2
20260903030043 80 119 0.0 0.0 0.00 0.02 0.02 92 1011.9
20260903024545 80 119 0.0 0.0 0.00 0.02 0.02 92 1011.7
20260903023041 80 119 0.0 0.0 0.01 0.02 0.02 91 1011.3
20260903021541 80 119 0.0 1.0 0.02 0.02 0.02 91 1011.1
20260903020042 80 119 0.0 2.0 0.02 0.02 0.02 90 1010.9
20260903014546 80 119 1.0 3.0 0.02 0.02 0.02 89 1010.9
20260903013049 82 147 0.0 8.0 0.01 0.01 0.01 86 1011.4
20260903011538 83 11 0.0 0.0 0.00 0.00 0.00 80 1011.5
20260903010041 86 5 0.0 0.0 0.00 0.00 0.00 75 1011.2
20260903004537 91 268 0.0 0.0 0.00 0.00 0.00 58 1010.5
20260903003039 91 126 0.0 0.0 0.00 0.00 0.00 58 1009.6
20260903001537 92 151 0.0 9.0 0.00 0.00 0.00 60 1009.4
20260903000037 92 142 3.0 9.0 0.00 0.00 0.00 60 1009.2
20260902234536 93 160 0.0 0.0 0.00 0.00 0.00 60 1009.0
20260902233036 93 143 0.0 0.0 0.00 0.00 0.00 58 1009.0
20260902231536 94 138 3.0 9.0 0.00 0.00 0.00 57 1009.1
20260902230032 94 149 0.0 0.0 0.00 0.00 0.00 57 1008.9
20260902224541 95 161 0.0 0.0 0.00 0.00 0.00 57 1009.1
20260902223029 96 152 0.0 0.0 0.00 0.00 0.00 55 1009.0
20260902221528 96 190 0.0 0.0 0.00 0.00 0.00 54 1009.0
20260902220027 95 182 0.0 0.0 0.00 0.00 0.00 55 1009.1
20260902214526 96 184 0.0 0.0 0.00 0.00 0.00 53 1009.1
20260902213029 96 162 0.0 0.0 0.00 0.00 0.00 55 1009.2
20260902211523 97 152 0.0 0.0 0.00 0.00 0.00 52 1009.4
20260902210023 97 157 0.0 0.0 0.00 0.00 0.00 52 1009.6
20260902204525 97 262 0.0 0.0 0.00 0.00 0.00 51 1009.6
20260902203021 97 180 0.0 0.0 0.00 0.00 0.00 52 1009.9
20260902201517 97 146 0.0 0.0 0.00 0.00 0.00 52 1009.9
20260902200015 97 205 0.0 0.0 0.00 0.00 0.00 51 1010.1
20260902194518 96 146 0.0 0.0 0.00 0.00 0.00 50 1010.5
20260902193008 95 132 0.0 0.0 0.00 0.00 0.00 53 1010.7
20260902191505 95 220 0.0 0.0 0.00 0.00 0.00 53 1010.9
20260902190001 94 195 0.0 0.0 0.00 0.00 0.00 57 1011.0
20260902184558 94 278 0.0 0.0 0.00 0.00 0.00 59 1011.4
20260902183106 93 162 0.0 0.0 0.00 0.00 0.00 61 1011.8
20260902181555 92 181 0.0 0.0 0.00 0.00 0.00 61 1012.0
20260902180054 92 219 0.0 0.0 0.00 0.00 0.00 63 1012.2
20260902174553 92 248 0.0 0.0 0.00 0.00 0.00 65 1012.5
20260902173050 92 280 0.0 0.0 0.00 0.00 0.00 65 1012.8
20260902171547 92 110 0.0 0.0 0.00 0.00 0.00 66 1013.0
20260902170043 91 240 0.0 0.0 0.00 0.00 0.00 68 1013.2
20260902164540 90 267 0.0 0.0 0.00 0.00 0.00 70 1013.3
20260902163037 88 171 0.0 0.0 0.00 0.00 0.00 74 1013.4
20260902161542 86 171 0.0 0.0 0.00 0.00 0.00 79 1013.5
20260902160033 85 279 0.0 0.0 0.00 0.00 0.00 82 1013.6
20260902154529 84 258 0.0 0.0 0.00 0.00 0.00 84 1013.6
20260902153026 84 146 0.0 0.0 0.00 0.00 0.00 85 1013.6
20260902151523 83 269 0.0 0.0 0.00 0.00 0.00 86 1013.4
20260902150021 82 290 0.0 0.0 0.00 0.00 0.00 87 1013.5
20260902144519 82 196 0.0 0.0 0.00 0.00 0.00 87 1013.5
20260902143016 82 281 0.0 0.0 0.00 0.00 0.00 88 1013.5
20260902141520 82 167 0.0 0.0 0.00 0.00 0.00 89 1013.4
20260902140012 81 240 0.0 0.0 0.00 0.00 0.00 89 1013.4
20260902134512 81 229 0.0 0.0 0.00 0.00 0.00 90 1013.4
20260902133009 81 257 0.0 0.0 0.00 0.00 0.00 90 1013.4
20260902131507 80 270 0.0 0.0 0.00 0.00 0.00 90 1013.2
20260902130004 80 258 0.0 0.0 0.00 0.00 0.00 91 1013.0
20260902124504 80 266 0.0 0.0 0.00 0.00 0.00 91 1012.8
20260902123002 80 250 0.0 0.0 0.00 0.00 0.00 91 1012.4
20260902121603 80 265 0.0 0.0 0.00 0.00 0.00 90 1012.0
20260902120056 80 300 0.0 0.0 0.00 0.00 0.00 90 1011.7
20260902114556 80 264 0.0 0.0 0.00 0.00 0.00 90 1011.7
20260902113108 80 244 0.0 0.0 0.00 0.00 0.00 89 1011.7
20260902111553 81 250 0.0 0.0 0.00 0.00 0.00 89 1011.5
20260902110047 81 273 0.0 0.0 0.00 0.00 0.00 89 1011.6
20260902104547 81 253 0.0 0.0 0.00 0.00 0.00 88 1011.6
20260902103048 81 266 0.0 0.0 0.00 0.00 0.00 88 1011.8
20260902101545 81 262 0.0 0.0 0.00 0.00 0.00 87 1011.8
20260902100045 81 273 0.0 0.0 0.00 0.00 0.00 87 1011.8
20260902094550 81 283 0.0 0.0 0.00 0.00 0.00 86 1011.7
20260902093044 81 241 0.0 0.0 0.00 0.00 0.00 86 1011.7
20260902091549 81 221 0.0 0.0 0.00 0.00 0.00 85 1011.7
20260902090042 81 327 0.0 0.0 0.00 0.00 0.00 85 1011.6
20260902084545 81 223 0.0 0.0 0.00 0.00 0.00 84 1011.6
20260902083040 81 146 0.0 0.0 0.00 0.00 0.00 83 1011.5
20260902081548 81 223 0.0 0.0 0.00 0.00 0.00 82 1011.6
20260902080040 81 267 0.0 0.0 0.00 0.00 0.00 80 1011.7
20260902074540 81 242 0.0 0.0 0.00 0.00 0.00 80 1011.7
20260902073037 81 255 0.0 0.0 0.00 0.00 0.00 80 1011.7
20260902071536 81 255 0.0 0.0 0.00 0.00 0.00 81 1011.9
20260902070035 81 255 0.0 0.0 0.00 0.00 0.00 81 1011.9
20260902064539 81 255 0.0 0.0 0.00 0.00 0.00 80 1011.9
20260902063034 81 255 0.0 0.0 0.00 0.00 0.00 80 1011.8
20260902061541 81 255 0.0 0.0 0.00 0.00 0.00 81 1011.7
20260902060037 81 256 0.0 0.0 0.00 0.00 0.00 81 1011.5
20260902054535 81 259 0.0 0.0 0.00 0.00 0.00 81 1011.7